Probability
45 61 68 77 71 77 81 87 81 87 87 81 74 74 71 68 58 61 45 42 45 45 58 52 65 61 61 58 52 52 35 42 39 35 19 19 23 23 29 29 13 16 16
45 61 71 77 81 81 81 84 87 84 81 81 77 74 71 61 61 61 52 42 45 52 39 58 55 52 61 52 52 52 39 39 39 32 10 13 19 19 16 23 23 13 16
52 68 68 77 84 84 84 81 87 87 84 77 71 74 74 74 58 48 52 55 55 52 58 58 58 55 52 52 52 45 39 35 45 35 16 13 13 19 13 19 19 16 19
48 61 68 74 81 84 84 84 87 87 84 81 74 74 71 71 65 61 58 58 55 52 52 58 65 61 61 61 48 45 42 42 42 42 32 23 23 13 10 13 16 13 13
45 52 71 71 74 74 74 77 77 84 81 81 74 74 74 71 71 68 58 55 52 52 48 58 65 65 55 55 52 52 52 45 42 42 39 32 39 19 13 13 13 6 10
39 55 65 71 71 61 68 71 77 84 84 81 74 71 71 71 71 71 65 55 55 52 48 45 61 65 61 58 55 55 52 48 45 48 42 45 39 29 16 19 13 10 3
45 61 68 68 71 65 68 68 74 77 77 77 77 74 71 71 68 71 65 52 52 52 52 48 61 61 58 55 55 55 48 45 39 42 45 45 45 42 35 16 16 10 10
42 58 68 68 68 61 61 68 74 71 71 74 74 77 77 71 68 68 61 55 58 48 55 55 52 48 45 42 45 45 42 39 35 32 42 39 35 32 35 23 13 10 6
45 58 65 61 65 58 65 68 71 71 74 68 68 71 71 68 65 58 58 55 58 45 52 48 48 45 42 45 45 42 39 35 35 32 32 29 35 35 32 29 19 10 6
48 55 61 61 61 61 61 68 71 68 68 71 74 55 61 61 55 55 55 58 55 52 39 48 45 39 39 48 45 45 45 45 42 32 32 29 35 39 35 32 32 23 6
55 52 58 58 61 55 48 58 61 61 65 71 65 65 55 55 52 52 52 55 55 39 32 35 39 39 45 45 48 42 39 35 35 32 29 35 35 39 32 26 32 19 13
55 55 48 55 48 45 45 52 55 58 65 65 65 65 55 52 48 52 48 42 42 42 35 39 35 35 39 45 42 39 29 32 29 29 26 26 19 35 35 26 23 19 13
55 55 48 52 52 52 45 48 52 55 52 42 52 58 55 52 52 52 48 45 39 39 35 35 35 35 39 42 39 32 26 23 23 23 19 19 19 23 23 19 19 13 10
55 52 55 48 48 52 48 48 48 52 48 42 48 55 55 52 48 42 48 42 42 42 39 35 32 29 26 29 23 23 23 23 23 16 13 13 16 19 13 13 13 6 10
55 58 55 48 48 45 48 42 42 42 45 42 42 45 42 45 45 42 45 42 42 32 35 29 32 26 26 16 19 16 19 19 19 10 6 3 3 6 6 6 10 13 10
55 52 52 48 45 45 42 42 39 42 45 42 39 39 39 42 39 42 35 39 39 39 32 26 23 19 13 10 13 13 16 16 16 10 10 3 3 3 0 0 0 3 6
52 48 48 48 45 42 45 35 39 39 39 35 32 35 35 39 39 35 45 35 39 35 35 32 29 19 10 6 3 6 10 19 19 13 13 3 3 3 3 0 0 0 0
52 52 45 45 45 45 42 39 35 32 35 35 35 32 35 35 39 32 32 39 39 35 29 29 23 23 10 3 3 3 10 6 10 10 10 13 6 3 3 10 3 3 0
52 55 52 45 48 45 45 39 26 29 29 35 32 32 35 29 29 29 32 35 42 35 32 32 23 26 10 0 0 3 6 6 16 10 6 13 10 6 0 6 13 10 6
52 52 48 45 45 42 45 42 32 32 23 29 29 35 32 29 29 32 26 29 45 39 35 32 23 19 13 0 0 0 6 13 19 19 10 3 3 0 0 6 10 10 10
48 48 48 48 48 52 52 48 42 32 29 29 29 29 32 32 29 29 39 35 32 39 35 35 29 26 13 0 0 0 6 13 16 16 10 3 0 0 0 0 6 6 6
42 48 52 48 48 42 42 42 39 35 35 29 23 32 32 26 23 32 35 35 35 39 29 35 32 19 13 0 0 0 0 3 10 13 6 3 0 0 0 0 0 0 0
42 48 52 48 48 45 42 39 35 32 29 35 32 35 32 39 32 39 39 42 39 26 26 29 23 13 13 3 0 0 0 0 6 3 3 3 0 0 0 0 0 0 0
39 42 52 48 45 45 45 48 42 42 35 35 39 39 42 39 45 45 32 29 29 26 26 19 16 13 10 10 3 0 0 0 0 0 0 0 0 0 0 0 0 0 3
39 39 45 42 42 42 45 39 42 42 39 39 32 35 29 32 45 32 23 16 16 19 19 23 23 13 10 3 3 0 0 0 3 3 6 10 10 3 10 10 6 3 3
39 42 42 42 39 39 42 35 35 48 39 32 26 23 23 13 26 23 3 0 0 0 3 6 6 6 3 0 0 0 0 0 0 0 6 6 10 6 3 6 6 10 6
Height
5872 5872 5872 5872 5872 5871 5871 5870 5869 5868 5867 5865 5863 5861 5860 5858 5857 5856 5855 5854 5854 5853 5853 5853 5852 5852 5852 5852 5852 5853 5853 5853 5854 5854 5854 5854 5854 5854 5854 5855 5855 5855 5856
5868 5868 5869 5869 5869 5869 5868 5867 5866 5865 5864 5862 5861 5859 5857 5856 5855 5854 5853 5852 5851 5851 5851 5851 5850 5850 5850 5850 5850 5850 5850 5851 5851 5851 5851 5851 5852 5851 5851 5851 5852 5852 5852
5865 5865 5866 5866 5866 5866 5865 5865 5864 5863 5861 5860 5858 5857 5855 5854 5853 5852 5851 5850 5849 5849 5849 5848 5848 5848 5848 5847 5847 5847 5848 5848 5848 5848 5848 5848 5848 5848 5848 5847 5848 5848 5848
5863 5862 5862 5863 5862 5862 5862 5861 5861 5860 5859 5857 5856 5854 5853 5852 5851 5850 5849 5848 5847 5847 5846 5846 5845 5845 5845 5845 5845 5845 5845 5845 5845 5845 5845 5845 5844 5844 5844 5845 5844 5844 5844
5860 5859 5859 5859 5859 5859 5858 5858 5858 5857 5856 5854 5853 5852 5851 5850 5849 5848 5847 5846 5845 5845 5844 5843 5843 5843 5843 5842 5842 5842 5842 5842 5842 5842 5842 5841 5841 5841 5841 5841 5841 5841 5841
5856 5856 5855 5855 5855 5855 5855 5854 5854 5854 5852 5851 5850 5849 5848 5847 5847 5846 5845 5844 5843 5843 5842 5841 5841 5840 5840 5840 5840 5839 5839 5839 5839 5839 5838 5838 5838 5837 5837 5837 5837 5837 5838
5852 5852 5851 5851 5851 5850 5850 5851 5851 5850 5849 5848 5847 5846 5845 5845 5844 5843 5843 5842 5841 5841 5840 5840 5839 5838 5838 5838 5837 5837 5837 5837 5837 5836 5836 5835 5834 5834 5834 5834 5834 5833 5834
5848 5848 5847 5848 5847 5847 5847 5847 5847 5846 5845 5845 5844 5843 5842 5842 5841 5841 5840 5839 5839 5838 5838 5837 5837 5836 5835 5835 5835 5834 5834 5834 5834 5834 5833 5832 5832 5831 5831 5831 5830 5830 5830
5843 5843 5843 5843 5843 5843 5843 5843 5842 5842 5841 5841 5840 5839 5839 5838 5838 5838 5837 5837 5836 5836 5835 5835 5834 5834 5833 5833 5832 5832 5832 5832 5832 5831 5831 5830 5830 5829 5828 5828 5828 5828 5827
5838 5839 5839 5839 5839 5839 5839 5839 5837 5837 5838 5837 5836 5836 5835 5835 5835 5835 5834 5834 5833 5833 5832 5832 5831 5831 5830 5830 5830 5830 5829 5829 5829 5828 5828 5828 5827 5827 5826 5825 5825 5824 5824
5834 5835 5835 5835 5834 5835 5834 5833 5833 5833 5833 5833 5833 5832 5832 5832 5831 5831 5831 5831 5830 5829 5829 5829 5828 5828 5827 5827 5827 5827 5827 5827 5826 5826 5825 5825 5825 5824 5824 5823 5822 5822 5821
5830 5830 5830 5831 5831 5831 5831 5830 5829 5830 5830 5829 5829 5829 5828 5828 5828 5827 5827 5827 5827 5826 5826 5825 5825 5825 5824 5824 5824 5824 5824 5824 5823 5823 5823 5822 5822 5821 5821 5820 5819 5818 5818
5825 5825 5826 5826 5827 5827 5826 5826 5825 5825 5826 5825 5825 5825 5825 5824 5824 5824 5823 5823 5823 5822 5822 5822 5821 5821 5821 5820 5821 5821 5821 5821 5820 5820 5819 5819 5819 5818 5818 5817 5816 5815 5814
5819 5820 5821 5821 5822 5822 5822 5821 5821 5821 5821 5821 5821 5821 5821 5820 5820 5820 5820 5820 5819 5819 5819 5818 5817 5817 5816 5816 5817 5817 5817 5817 5817 5816 5816 5816 5815 5815 5814 5813 5812 5811 5810
5814 5815 5816 5816 5817 5817 5817 5817 5816 5816 5816 5816 5816 5816 5817 5816 5816 5816 5816 5816 5815 5815 5815 5814 5813 5812 5812 5812 5813 5813 5813 5813 5813 5813 5813 5812 5812 5811 5810 5809 5808 5807 5806
5808 5810 5811 5812 5812 5812 5812 5812 5811 5811 5811 5811 5811 5811 5812 5812 5812 5812 5812 5812 5812 5811 5811 5810 5810 5809 5808 5808 5809 5809 5809 5810 5809 5809 5809 5808 5807 5807 5806 5805 5804 5803 5802
5804 5805 5805 5806 5807 5807 5807 5806 5806 5806 5806 5806 5806 5806 5806 5807 5807 5808 5808 5808 5808 5808 5807 5807 5806 5805 5805 5805 5805 5805 5805 5805 5805 5805 5804 5804 5803 5803 5802 5801 5800 5799 5798
5798 5799 5800 5800 5801 5801 5801 5801 5801 5801 5801 5801 5801 5801 5801 5802 5802 5803 5803 5803 5803 5803 5803 5802 5802 5801 5801 5801 5801 5801 5801 5801 5801 5800 5800 5800 5799 5798 5797 5796 5796 5795 5794
5793 5793 5795 5795 5795 5796 5796 5796 5796 5796 5796 5795 5795 5796 5796 5797 5797 5797 5798 5798 5798 5798 5798 5798 5798 5797 5797 5797 5797 5797 5797 5797 5797 5796 5795 5795 5794 5794 5793 5792 5791 5791 5790
5788 5789 5789 5789 5789 5790 5790 5791 5791 5791 5791 5791 5791 5791 5791 5791 5792 5792 5793 5793 5793 5793 5793 5793 5793 5793 5792 5792 5792 5792 5792 5792 5792 5791 5791 5790 5790 5789 5788 5788 5787 5786 5785
5782 5783 5783 5784 5784 5784 5785 5785 5785 5786 5786 5786 5786 5786 5786 5786 5787 5787 5787 5788 5788 5789 5789 5789 5788 5788 5788 5787 5787 5787 5787 5787 5786 5786 5786 5785 5785 5784 5784 5783 5782 5781 5780
5775 5777 5778 5779 5779 5779 5779 5779 5780 5780 5780 5781 5781 5781 5781 5782 5782 5782 5782 5783 5783 5783 5784 5783 5783 5783 5783 5782 5782 5782 5782 5781 5781 5781 5781 5780 5779 5779 5778 5777 5776 5775 5775
5769 5770 5772 5773 5773 5774 5774 5774 5774 5775 5775 5776 5776 5776 5776 5777 5777 5776 5776 5777 5777 5777 5778 5778 5778 5778 5777 5777 5777 5776 5776 5776 5775 5775 5775 5774 5773 5773 5772 5771 5770 5770 5769
5763 5764 5765 5766 5767 5767 5768 5768 5769 5769 5769 5770 5770 5770 5771 5771 5771 5771 5771 5771 5772 5772 5772 5772 5772 5772 5772 5771 5771 5771 5770 5770 5769 5769 5768 5768 5767 5766 5766 5765 5764 5763 5763
5756 5757 5758 5759 5760 5761 5761 5762 5762 5763 5763 5764 5764 5764 5765 5765 5765 5765 5765 5765 5766 5766 5766 5766 5766 5766 5766 5765 5765 5764 5764 5763 5763 5762 5762 5761 5761 5760 5759 5759 5758 5757 5756
5749 5750 5751 5752 5753 5753 5754 5755 5755 5756 5757 5758 5758 5758 5758 5759 5759 5759 5759 5759 5759 5760 5760 5760 5760 5759 5759 5758 5758 5758 5757 5757 5756 5756 5755 5754 5754 5753 5752 5752 5751 5750 5749
Wind_Speed
19 17 17 17 16 16 16 16 16 16 17 17 18 19 18 16 15 14 13 12 11 11 10 10 11 12 12 12 11 11 11 10 10 11 11 12 12 12 13 12 12 12 12
21 19 17 17 17 17 17 17 18 18 18 18 18 18 17 16 15 14 13 13 12 11 10 11 11 12 12 11 11 11 11 11 11 12 11 12 12 13 13 13 13 13 14
20 18 18 18 18 18 17 17 18 18 19 19 19 18 16 15 15 15 14 13 12 12 12 12 12 11 11 11 11 12 12 12 13 12 12 12 13 13 13 13 13 14 14
21 20 18 19 19 19 19 18 18 18 19 19 18 17 17 16 15 15 13 13 12 12 12 12 11 11 11 12 12 12 13 13 13 13 13 13 13 13 13 14 14 14 14
20 21 20 19 20 19 19 19 18 18 18 18 17 16 16 15 15 15 13 13 13 12 12 11 11 11 11 12 12 12 12 13 12 12 13 13 14 13 14 14 14 14 14
20 21 22 20 20 20 19 18 18 18 18 17 16 16 16 15 15 14 14 13 13 13 12 11 11 12 11 11 11 11 11 11 12 12 12 12 13 13 14 13 13 13 13
20 21 21 20 20 20 19 19 19 19 18 18 17 17 16 15 15 14 14 14 14 13 12 12 12 11 11 11 11 10 11 11 11 12 12 12 12 12 12 12 13 13 14
20 21 21 20 20 20 20 19 19 19 19 18 17 17 16 15 15 14 14 14 14 13 12 12 12 11 11 11 11 11 10 11 11 11 11 10 10 11 11 12 12 12 13
20 21 21 20 20 20 20 19 18 19 19 18 17 17 17 16 15 15 15 14 14 14 13 12 12 12 12 11 11 11 11 11 11 11 11 11 10 10 10 11 12 12 13
21 21 20 20 19 19 20 20 19 18 18 18 18 17 17 16 16 16 15 15 15 14 13 13 12 12 12 11 11 11 11 12 11 11 11 11 10 10 10 11 12 12 12
21 20 20 19 19 18 19 19 19 19 18 18 18 17 17 16 16 16 15 15 14 14 13 13 13 12 12 12 12 12 12 12 12 12 12 11 11 11 12 12 12 12 13
21 20 20 19 19 19 19 18 20 20 19 19 18 18 17 16 16 15 15 16 15 15 14 15 14 14 14 14 13 13 13 13 13 13 13 12 12 12 13 13 13 14 14
21 21 21 20 20 20 20 20 20 20 20 19 19 18 17 16 15 14 14 15 15 15 15 16 15 15 16 15 15 15 15 14 14 13 13 13 13 13 13 13 14 15 15
21 21 21 21 20 21 21 22 22 21 20 20 20 19 18 17 16 16 15 15 15 16 16 16 16 16 17 16 16 15 15 14 14 13 13 14 14 14 13 14 14 15 16
21 22 21 21 21 21 21 22 21 21 21 21 21 20 19 17 17 16 15 15 16 16 16 16 16 16 17 16 15 15 15 15 15 15 15 15 15 15 15 15 16 16 16
22 21 20 21 21 21 21 21 21 20 20 20 20 19 19 18 17 16 16 16 16 16 16 16 16 16 17 16 15 15 15 15 16 16 16 16 15 16 16 16 16 16 16
21 21 21 21 21 21 22 21 20 19 19 19 19 19 19 19 18 17 17 17 17 17 18 17 17 16 15 15 16 16 17 16 16 16 16 16 16 16 16 16 16 16 16
23 22 22 21 21 22 22 21 20 20 20 19 19 19 19 19 19 19 18 18 18 18 18 17 17 17 17 17 16 16 17 17 17 16 16 16 16 16 17 17 17 17 17
25 23 23 23 23 22 21 21 20 19 19 18 18 18 18 19 19 20 20 19 18 17 17 17 17 17 18 18 17 17 17 17 17 17 17 17 17 17 17 17 17 18 18
25 25 24 23 23 22 21 21 20 19 19 19 19 19 19 19 19 19 18 18 17 17 17 18 18 18 18 18 18 18 18 18 18 18 19 19 19 19 19 18 18 18 19
24 24 23 22 22 22 21 21 20 19 20 20 19 19 19 19 19 18 17 17 18 18 18 18 18 18 18 18 18 19 19 19 19 19 20 20 20 20 20 20 19 19 19
24 23 23 22 22 22 21 21 20 20 20 19 18 18 18 18 18 19 19 19 19 19 19 19 19 18 18 18 18 19 19 19 20 20 21 21 21 21 21 21 21 21 21
24 24 23 23 22 22 21 21 21 21 20 20 19 19 19 19 19 19 20 20 20 20 20 20 19 19 18 19 19 19 20 20 21 21 22 22 22 22 22 21 21 22 22
25 24 24 24 24 23 23 22 22 22 21 21 22 22 21 21 21 20 20 20 20 20 20 20 20 19 19 19 20 20 20 21 22 22 23 23 22 22 22 22 22 23 22
25 25 25 24 24 24 24 24 24 23 23 22 22 23 23 23 22 22 21 21 20 20 20 20 20 20 20 20 20 21 21 21 22 23 23 23 23 22 22 22 23 23 23
24 24 24 24 24 24 24 24 25 25 24 24 24 24 24 24 23 23 22 22 21 20 21 21 21 21 22 22 22 22 22 22 23 23 23 23 22 22 23 23 23 23 23
Wind_Direction
278 278 284 288 290 292 296 299 301 303 308 312 313 313 311 308 308 309 309 306 302 299 295 294 292 294 291 285 282 282 279 276 273 273 273 270 267 268 271 271 271 272 272
279 278 281 286 288 289 292 297 300 301 305 309 310 312 311 308 305 306 305 304 300 299 297 295 292 292 293 286 278 279 278 278 277 277 275 273 272 269 271 272 272 273 275
277 280 280 283 286 287 289 293 298 300 303 306 308 310 307 308 307 304 303 303 302 300 299 297 291 288 287 287 279 277 278 278 278 277 276 277 275 270 271 273 272 272 273
275 279 280 282 284 286 288 289 294 298 301 304 305 306 306 307 307 307 305 305 305 301 299 298 292 290 289 286 283 279 277 276 277 276 277 278 276 273 272 273 274 274 273
271 276 279 281 282 283 285 287 289 293 298 302 303 302 302 303 304 304 303 304 306 305 302 298 296 291 291 288 285 282 277 275 277 281 281 278 276 277 276 275 274 275 275
270 274 277 280 280 279 280 284 288 291 295 300 301 300 299 299 300 300 300 301 305 303 299 295 297 296 295 289 287 285 280 278 281 282 282 279 279 280 277 277 277 275 275
267 271 274 280 280 280 279 283 287 290 293 296 297 297 296 294 295 296 297 299 303 301 295 295 295 296 295 289 288 286 285 284 284 285 285 286 285 284 280 281 280 279 279
268 268 270 276 278 278 279 282 285 288 289 291 292 292 293 290 291 293 295 295 297 298 293 292 294 296 296 290 288 284 286 288 289 289 291 296 296 295 288 283 282 283 282
269 269 273 274 274 276 278 280 282 286 288 289 290 289 290 289 286 289 291 293 293 293 291 289 290 293 295 291 288 286 288 287 285 289 292 297 298 298 294 288 286 287 286
269 271 273 272 273 275 278 279 283 285 286 287 288 288 288 289 288 289 290 290 291 288 289 287 288 290 291 288 288 287 289 286 284 290 290 292 291 298 300 297 295 293 291
267 269 269 271 274 276 279 280 281 284 283 283 285 284 285 287 287 287 290 290 288 287 288 290 288 289 289 287 284 283 285 285 288 288 287 286 289 292 295 298 298 298 298
263 266 268 271 274 276 277 279 281 280 279 280 281 281 283 286 286 285 286 287 286 285 286 289 288 287 287 286 285 282 285 285 286 287 288 286 287 292 294 294 294 295 296
262 264 266 269 273 275 276 278 281 281 278 277 279 280 283 284 283 284 286 288 288 286 286 288 286 285 283 283 282 282 282 284 286 286 287 285 287 292 295 294 295 295 294
263 263 266 269 273 275 277 277 278 280 278 275 275 277 280 280 280 283 285 286 289 289 288 286 288 286 281 280 281 281 281 283 286 286 287 289 291 291 293 293 295 295 294
262 263 265 268 273 277 278 278 276 276 277 276 273 272 274 275 278 282 285 286 287 289 288 288 290 288 283 278 279 280 280 283 285 286 288 290 290 289 291 291 294 295 292
260 263 267 269 272 276 279 280 280 276 276 275 273 269 269 271 274 277 280 284 287 290 289 288 288 285 282 279 276 277 279 283 286 286 286 288 290 291 291 290 292 291 291
262 266 270 272 273 276 279 279 278 277 277 274 270 268 266 267 271 273 277 281 285 287 288 286 286 285 282 279 277 277 278 281 285 286 286 289 291 290 289 291 293 293 292
263 265 269 270 273 275 276 276 276 275 276 277 273 270 267 266 268 270 275 277 280 282 283 285 285 285 282 280 278 277 278 281 284 286 286 287 290 289 289 290 290 290 291
262 264 268 271 273 273 274 274 275 275 276 275 275 272 271 268 268 271 272 274 277 279 280 281 284 282 279 278 278 278 279 280 282 285 287 288 289 289 291 290 290 291 293
261 263 266 269 272 272 272 274 273 274 273 274 274 273 272 271 272 273 273 273 272 273 277 280 282 280 277 277 277 278 279 279 280 282 284 287 289 290 291 292 292 292 294
260 261 264 268 270 272 274 274 272 271 272 271 270 271 271 272 272 271 272 271 270 272 275 279 280 279 277 278 278 277 278 278 280 282 284 286 288 288 289 289 289 290 291
259 260 262 265 268 270 271 271 271 269 268 267 267 268 270 272 272 271 270 270 271 273 275 275 276 279 278 278 279 279 279 279 280 283 284 284 285 287 288 286 286 287 288
257 258 260 262 264 266 267 270 271 269 266 265 266 268 269 271 271 271 272 270 270 272 275 275 276 278 280 279 278 280 280 279 280 282 284 284 284 285 286 284 283 284 286
258 258 258 259 262 264 266 268 270 270 268 268 268 269 268 271 271 271 270 270 270 271 273 275 276 279 280 279 278 279 281 281 281 281 282 282 282 282 283 283 283 284 284
258 259 262 262 263 264 264 265 268 269 268 268 269 269 269 269 270 270 272 272 272 275 276 276 276 277 278 280 280 279 281 282 281 280 281 281 281 281 282 282 284 284 284
258 260 262 262 263 263 263 265 266 266 266 266 267 268 268 267 267 269 272 274 273 274 276 277 278 278 280 281 282 282 282 283 283 282 281 281 280 280 281 283 283 283 284